Year,Month,Day,Hour,Minute,Value (Times are PST for temperature in C)
2019,03,28,00,00,4.80
2019,03,28,00,01,4.80
2019,03,28,00,02,4.80
2019,03,28,00,03,4.80
2019,03,28,00,04,4.80
2019,03,28,00,05,4.80
2019,03,28,00,06,4.70
2019,03,28,00,07,4.70
2019,03,28,00,08,4.70
2019,03,28,00,09,4.70
2019,03,28,00,10,4.60
2019,03,28,00,11,4.60
2019,03,28,00,12,4.60
2019,03,28,00,13,4.60
2019,03,28,00,14,4.60
2019,03,28,00,15,4.70
2019,03,28,00,16,4.70
2019,03,28,00,17,4.70
2019,03,28,00,18,4.70
2019,03,28,00,19,4.70
2019,03,28,00,20,4.70
2019,03,28,00,21,4.70
2019,03,28,00,22,4.80
2019,03,28,00,23,4.80
2019,03,28,00,24,4.80
2019,03,28,00,25,4.80
2019,03,28,00,26,4.80
2019,03,28,00,27,4.90
2019,03,28,00,28,4.90
2019,03,28,00,29,4.90
2019,03,28,00,30,4.90
2019,03,28,00,31,4.90
2019,03,28,00,32,4.90
2019,03,28,00,33,4.90
2019,03,28,00,34,4.90
2019,03,28,00,35,4.90
2019,03,28,00,36,4.90
2019,03,28,00,37,4.80
2019,03,28,00,38,4.80
2019,03,28,00,39,4.80
2019,03,28,00,40,4.80
2019,03,28,00,41,4.70
2019,03,28,00,42,4.70
2019,03,28,00,43,4.70
2019,03,28,00,44,4.70
2019,03,28,00,45,4.60
2019,03,28,00,46,4.60
2019,03,28,00,47,4.60
2019,03,28,00,48,4.60
2019,03,28,00,49,4.60
2019,03,28,00,50,4.60
2019,03,28,00,51,4.50
2019,03,28,00,52,4.50
2019,03,28,00,53,4.50
2019,03,28,00,54,4.50
2019,03,28,00,55,4.50
2019,03,28,00,56,4.50
2019,03,28,00,57,4.50
2019,03,28,00,58,4.40
2019,03,28,00,59,4.40
2019,03,28,01,00,4.40
2019,03,28,01,01,4.40
2019,03,28,01,02,4.40
2019,03,28,01,03,4.40
2019,03,28,01,04,4.40
2019,03,28,01,05,4.40
2019,03,28,01,06,4.40
2019,03,28,01,07,4.30
2019,03,28,01,08,4.30
2019,03,28,01,09,4.30
2019,03,28,01,10,4.30
2019,03,28,01,11,4.30
2019,03,28,01,12,4.30
2019,03,28,01,13,4.30
2019,03,28,01,14,4.30
2019,03,28,01,15,4.20
2019,03,28,01,16,4.20
2019,03,28,01,17,4.20
2019,03,28,01,18,4.20
2019,03,28,01,19,4.20
2019,03,28,01,20,4.10
2019,03,28,01,21,4.10
2019,03,28,01,22,4.10
2019,03,28,01,23,4.00
2019,03,28,01,24,4.00
2019,03,28,01,25,4.00
2019,03,28,01,26,4.00
2019,03,28,01,27,3.90
2019,03,28,01,28,3.90
2019,03,28,01,29,3.90
2019,03,28,01,30,3.90
2019,03,28,01,31,3.90
2019,03,28,01,32,3.90
2019,03,28,01,33,3.80
2019,03,28,01,34,3.80
2019,03,28,01,35,3.80
2019,03,28,01,36,3.80
2019,03,28,01,37,3.80
2019,03,28,01,38,3.80
2019,03,28,01,39,3.80
2019,03,28,01,40,3.80
2019,03,28,01,41,3.80
2019,03,28,01,42,3.80
2019,03,28,01,43,3.80
2019,03,28,01,44,3.80
2019,03,28,01,45,3.80
2019,03,28,01,46,3.80
2019,03,28,01,47,3.80
2019,03,28,01,48,3.80
2019,03,28,01,49,3.80
2019,03,28,01,50,3.70
2019,03,28,01,51,3.70
2019,03,28,01,52,3.70
2019,03,28,01,53,3.70
2019,03,28,01,54,3.70
2019,03,28,01,55,3.70
2019,03,28,01,56,3.70
2019,03,28,01,57,3.70
2019,03,28,01,58,3.70
2019,03,28,01,59,3.70
2019,03,28,02,00,3.70
2019,03,28,02,01,3.70
2019,03,28,02,02,3.70
2019,03,28,02,03,3.60
2019,03,28,02,04,3.60
2019,03,28,02,05,3.60
2019,03,28,02,06,3.60
2019,03,28,02,07,3.60
2019,03,28,02,08,3.60
2019,03,28,02,09,3.60
2019,03,28,02,10,3.60
2019,03,28,02,11,3.60
2019,03,28,02,12,3.60
2019,03,28,02,13,3.60
2019,03,28,02,14,3.60
2019,03,28,02,15,3.50
2019,03,28,02,16,3.50
2019,03,28,02,17,3.50
2019,03,28,02,18,3.50
2019,03,28,02,19,3.40
2019,03,28,02,20,3.40
2019,03,28,02,21,3.40
2019,03,28,02,22,3.40
2019,03,28,02,23,3.40
2019,03,28,02,24,3.40
2019,03,28,02,25,3.40
2019,03,28,02,26,3.40
2019,03,28,02,27,3.30
2019,03,28,02,28,3.30
2019,03,28,02,29,3.30
2019,03,28,02,30,3.30
2019,03,28,02,31,3.30
2019,03,28,02,32,3.30
2019,03,28,02,33,3.30
2019,03,28,02,34,3.30
2019,03,28,02,35,3.30
2019,03,28,02,36,3.20
2019,03,28,02,37,3.20
2019,03,28,02,38,3.30
2019,03,28,02,39,3.30
2019,03,28,02,40,3.30
2019,03,28,02,41,3.30
2019,03,28,02,42,3.30
2019,03,28,02,43,3.30
2019,03,28,02,44,3.30
2019,03,28,02,45,3.30
2019,03,28,02,46,3.30
2019,03,28,02,47,3.20
2019,03,28,02,48,3.20
2019,03,28,02,49,3.20
2019,03,28,02,50,3.20
2019,03,28,02,51,3.20
2019,03,28,02,52,3.20
2019,03,28,02,53,3.20
2019,03,28,02,54,3.20
2019,03,28,02,55,3.20
2019,03,28,02,56,3.20
2019,03,28,02,57,3.20
2019,03,28,02,58,3.20
2019,03,28,02,59,3.20
2019,03,28,03,00,3.20
2019,03,28,03,01,3.20
2019,03,28,03,02,3.20
2019,03,28,03,03,3.20
2019,03,28,03,04,3.20
2019,03,28,03,05,3.20
2019,03,28,03,06,3.10
2019,03,28,03,07,3.10
2019,03,28,03,08,3.10
2019,03,28,03,09,3.10
2019,03,28,03,10,3.10
2019,03,28,03,11,3.00
2019,03,28,03,12,3.00
2019,03,28,03,13,3.00
2019,03,28,03,14,3.00
2019,03,28,03,15,3.00
2019,03,28,03,16,3.00
2019,03,28,03,17,3.00
2019,03,28,03,18,2.90
2019,03,28,03,19,2.90
2019,03,28,03,20,2.90
2019,03,28,03,21,2.90
2019,03,28,03,22,2.90
2019,03,28,03,23,2.90
2019,03,28,03,24,2.90
2019,03,28,03,25,2.80
2019,03,28,03,26,2.80
2019,03,28,03,27,2.80
2019,03,28,03,28,2.80
2019,03,28,03,29,2.80
2019,03,28,03,30,2.70
2019,03,28,03,31,2.70
2019,03,28,03,32,2.70
2019,03,28,03,33,2.70
2019,03,28,03,34,2.70
2019,03,28,03,35,2.70
2019,03,28,03,36,2.70
2019,03,28,03,37,2.70
2019,03,28,03,38,2.70
2019,03,28,03,39,2.70
2019,03,28,03,40,2.70
2019,03,28,03,41,2.70
2019,03,28,03,42,2.70
2019,03,28,03,43,2.70
2019,03,28,03,44,2.70
2019,03,28,03,45,2.70
2019,03,28,03,46,2.70
2019,03,28,03,47,2.70
2019,03,28,03,48,2.60
2019,03,28,03,49,2.60
2019,03,28,03,50,2.60
2019,03,28,03,51,2.60
2019,03,28,03,52,2.60
2019,03,28,03,53,2.50
2019,03,28,03,54,2.50
2019,03,28,03,55,2.50
2019,03,28,03,56,2.50
2019,03,28,03,57,2.40
2019,03,28,03,58,2.40
2019,03,28,03,59,2.40
2019,03,28,04,00,2.40
2019,03,28,04,01,2.40
2019,03,28,04,02,2.40
2019,03,28,04,03,2.40
2019,03,28,04,04,2.40
2019,03,28,04,05,2.40
2019,03,28,04,06,2.40
2019,03,28,04,07,2.40
2019,03,28,04,08,2.40
2019,03,28,04,09,2.30
2019,03,28,04,10,2.30
2019,03,28,04,11,2.30
2019,03,28,04,12,2.30
2019,03,28,04,13,2.30
2019,03,28,04,14,2.30
2019,03,28,04,15,2.30
2019,03,28,04,16,2.30
2019,03,28,04,17,2.30
2019,03,28,04,18,2.30
2019,03,28,04,19,2.30
2019,03,28,04,20,2.30
2019,03,28,04,21,2.30
2019,03,28,04,22,2.30
2019,03,28,04,23,2.30
2019,03,28,04,24,2.30
2019,03,28,04,25,2.30
2019,03,28,04,26,2.30
2019,03,28,04,27,2.30
2019,03,28,04,28,2.20
2019,03,28,04,29,2.20
2019,03,28,04,30,2.20
2019,03,28,04,31,2.20
2019,03,28,04,32,2.20
2019,03,28,04,33,2.20
2019,03,28,04,34,2.20
2019,03,28,04,35,2.20
2019,03,28,04,36,2.10
2019,03,28,04,37,2.10
2019,03,28,04,38,2.10
2019,03,28,04,39,2.10
2019,03,28,04,40,2.10
2019,03,28,04,41,2.10
2019,03,28,04,42,2.10
2019,03,28,04,43,2.10
2019,03,28,04,44,2.10
2019,03,28,04,45,2.10
2019,03,28,04,46,2.10
2019,03,28,04,47,2.10
2019,03,28,04,48,2.10
2019,03,28,04,49,2.10
2019,03,28,04,50,2.10
2019,03,28,04,51,2.10
2019,03,28,04,52,2.10
2019,03,28,04,53,2.10
2019,03,28,04,54,2.10
2019,03,28,04,55,2.10
2019,03,28,04,56,2.10
2019,03,28,04,57,2.10
2019,03,28,04,58,2.00
2019,03,28,04,59,2.00
2019,03,28,05,00,2.00
2019,03,28,05,01,2.00
2019,03,28,05,02,1.90
2019,03,28,05,03,1.90
2019,03,28,05,04,1.90
2019,03,28,05,05,1.90
2019,03,28,05,06,1.90
2019,03,28,05,07,1.90
2019,03,28,05,08,1.90
2019,03,28,05,09,1.90
2019,03,28,05,10,1.80
2019,03,28,05,11,1.80
2019,03,28,05,12,1.80
2019,03,28,05,13,1.90
2019,03,28,05,14,1.90
2019,03,28,05,15,1.90
2019,03,28,05,16,1.90
2019,03,28,05,17,1.90
2019,03,28,05,18,1.90
2019,03,28,05,19,1.90
2019,03,28,05,20,1.80
2019,03,28,05,21,1.80
2019,03,28,05,22,1.80
2019,03,28,05,23,1.80
2019,03,28,05,24,1.80
2019,03,28,05,25,1.80
2019,03,28,05,26,1.80
2019,03,28,05,27,1.80
2019,03,28,05,28,1.80
2019,03,28,05,29,1.80
2019,03,28,05,30,1.70
2019,03,28,05,31,1.70
2019,03,28,05,32,1.70
2019,03,28,05,33,1.70
2019,03,28,05,34,1.70
2019,03,28,05,35,1.70
2019,03,28,05,36,1.70
2019,03,28,05,37,1.70
2019,03,28,05,38,1.70
2019,03,28,05,39,1.70
2019,03,28,05,40,1.70
2019,03,28,05,41,1.70
2019,03,28,05,42,1.70
2019,03,28,05,43,1.70
2019,03,28,05,44,1.70
2019,03,28,05,45,1.70
2019,03,28,05,46,1.70
2019,03,28,05,47,1.70
2019,03,28,05,48,1.70
2019,03,28,05,49,1.70
2019,03,28,05,50,1.70
2019,03,28,05,51,1.70
2019,03,28,05,52,1.70
2019,03,28,05,53,1.70
2019,03,28,05,54,1.70
2019,03,28,05,55,1.70
2019,03,28,05,56,1.70
2019,03,28,05,57,1.60
2019,03,28,05,58,1.60
2019,03,28,05,59,1.60
2019,03,28,06,00,1.60
2019,03,28,06,01,1.60
2019,03,28,06,02,1.60
2019,03,28,06,03,1.60
2019,03,28,06,04,1.60
2019,03,28,06,05,1.60
2019,03,28,06,06,1.50
2019,03,28,06,07,1.50
2019,03,28,06,08,1.50
2019,03,28,06,09,1.50
2019,03,28,06,10,1.50
2019,03,28,06,11,1.50
2019,03,28,06,12,1.50
2019,03,28,06,13,1.50
2019,03,28,06,14,1.50
2019,03,28,06,15,1.50
2019,03,28,06,16,1.40
2019,03,28,06,17,1.40
2019,03,28,06,18,1.40
2019,03,28,06,19,1.40
2019,03,28,06,20,1.40
2019,03,28,06,21,1.40
2019,03,28,06,22,1.40
2019,03,28,06,23,1.40
2019,03,28,06,24,1.40
2019,03,28,06,25,1.40
2019,03,28,06,26,1.40
2019,03,28,06,27,1.40
2019,03,28,06,28,1.40
2019,03,28,06,29,1.40
2019,03,28,06,30,1.30
2019,03,28,06,31,1.30
2019,03,28,06,32,1.30
2019,03,28,06,33,1.30
2019,03,28,06,34,1.30
2019,03,28,06,35,1.30
2019,03,28,06,36,1.30
2019,03,28,06,37,1.30
2019,03,28,06,38,1.20
2019,03,28,06,39,1.20
2019,03,28,06,40,1.20
2019,03,28,06,41,1.20
2019,03,28,06,42,1.20
2019,03,28,06,43,1.20
2019,03,28,06,44,1.20
2019,03,28,06,45,1.20
2019,03,28,06,46,1.20
2019,03,28,06,47,1.20
2019,03,28,06,48,1.20
2019,03,28,06,49,1.20
2019,03,28,06,50,1.10
2019,03,28,06,51,1.10
2019,03,28,06,52,1.10
2019,03,28,06,53,1.10
2019,03,28,06,54,1.10
2019,03,28,06,55,1.10
2019,03,28,06,56,1.10
2019,03,28,06,57,1.10
2019,03,28,06,58,1.00
2019,03,28,06,59,1.00
2019,03,28,07,00,1.00
2019,03,28,07,01,1.00
2019,03,28,07,02,1.00
2019,03,28,07,03,1.00
2019,03,28,07,04,1.00
2019,03,28,07,05,0.90
2019,03,28,07,06,0.90
2019,03,28,07,07,0.90
2019,03,28,07,08,0.90
2019,03,28,07,09,0.90
2019,03,28,07,10,0.90
2019,03,28,07,11,0.90
2019,03,28,07,12,0.90
2019,03,28,07,13,0.90
2019,03,28,07,14,0.90
2019,03,28,07,15,0.90
2019,03,28,07,16,0.80
2019,03,28,07,17,0.80
2019,03,28,07,18,0.80
2019,03,28,07,19,0.80
2019,03,28,07,20,0.80
2019,03,28,07,21,0.80
2019,03,28,07,22,0.80
2019,03,28,07,23,0.80
2019,03,28,07,24,0.80
2019,03,28,07,25,0.80
2019,03,28,07,26,0.80
2019,03,28,07,27,0.80
2019,03,28,07,28,0.80
2019,03,28,07,29,0.80
2019,03,28,07,30,0.80
2019,03,28,07,31,0.80
2019,03,28,07,32,0.80
2019,03,28,07,33,0.80
2019,03,28,07,34,0.80
2019,03,28,07,35,0.80
2019,03,28,07,36,0.80
2019,03,28,07,37,0.80
2019,03,28,07,38,0.80
2019,03,28,07,39,0.80
2019,03,28,07,40,0.80
2019,03,28,07,41,0.80
2019,03,28,07,42,0.80
2019,03,28,07,43,0.80
2019,03,28,07,44,0.80
2019,03,28,07,45,0.80
2019,03,28,07,46,0.80
2019,03,28,07,47,0.80
2019,03,28,07,48,0.80
2019,03,28,07,49,0.80
2019,03,28,07,50,0.80
2019,03,28,07,51,0.80
2019,03,28,07,52,0.80
2019,03,28,07,53,0.80
2019,03,28,07,54,0.80
2019,03,28,07,55,0.80
2019,03,28,07,56,0.80
2019,03,28,07,57,0.80
2019,03,28,07,58,0.80
2019,03,28,07,59,0.80
2019,03,28,08,00,0.80
2019,03,28,08,01,0.90
2019,03,28,08,02,0.90
2019,03,28,08,03,0.90
2019,03,28,08,04,0.90
2019,03,28,08,05,0.90
2019,03,28,08,06,0.90
2019,03,28,08,07,0.90
2019,03,28,08,08,1.00
2019,03,28,08,09,1.00
2019,03,28,08,10,1.00
2019,03,28,08,11,1.00
2019,03,28,08,12,1.00
2019,03,28,08,13,1.10
2019,03,28,08,14,1.10
2019,03,28,08,15,1.10
2019,03,28,08,16,1.10
2019,03,28,08,17,1.10
2019,03,28,08,18,1.10
2019,03,28,08,19,1.20
2019,03,28,08,20,1.20
2019,03,28,08,21,1.20
2019,03,28,08,22,1.20
2019,03,28,08,23,1.20
2019,03,28,08,24,1.30
2019,03,28,08,25,1.30
2019,03,28,08,26,1.30
2019,03,28,08,27,1.30
2019,03,28,08,28,1.40
2019,03,28,08,29,1.40
2019,03,28,08,30,1.40
2019,03,28,08,31,1.50
2019,03,28,08,32,1.60
2019,03,28,08,33,1.60
2019,03,28,08,34,1.70
2019,03,28,08,35,1.70
2019,03,28,08,36,1.80
2019,03,28,08,37,1.80
2019,03,28,08,38,1.90
2019,03,28,08,39,2.00
2019,03,28,08,40,2.00
2019,03,28,08,41,2.10
2019,03,28,08,42,2.20
2019,03,28,08,43,2.30
2019,03,28,08,44,2.30
2019,03,28,08,45,2.40
2019,03,28,08,46,2.50
2019,03,28,08,47,2.50
2019,03,28,08,48,2.60
2019,03,28,08,49,2.60
2019,03,28,08,50,2.70
2019,03,28,08,51,2.70
2019,03,28,08,52,2.80
2019,03,28,08,53,2.80
2019,03,28,08,54,2.90
2019,03,28,08,55,3.00
2019,03,28,08,56,3.10
2019,03,28,08,57,3.20
2019,03,28,08,58,3.30
2019,03,28,08,59,3.30
2019,03,28,09,00,3.40
2019,03,28,09,01,3.50
2019,03,28,09,02,3.50
2019,03,28,09,03,3.60
2019,03,28,09,04,3.70
2019,03,28,09,05,3.80
2019,03,28,09,06,3.80
2019,03,28,09,07,3.90
2019,03,28,09,08,4.00
2019,03,28,09,09,4.10
2019,03,28,09,10,4.20
2019,03,28,09,11,4.20
2019,03,28,09,12,4.30
2019,03,28,09,13,4.40
2019,03,28,09,14,4.50
2019,03,28,09,15,4.50
2019,03,28,09,16,4.60
2019,03,28,09,17,4.70
2019,03,28,09,18,4.70
2019,03,28,09,19,4.80
2019,03,28,09,20,4.80
2019,03,28,09,21,4.90
2019,03,28,09,22,5.00
2019,03,28,09,23,5.00
2019,03,28,09,24,5.10
2019,03,28,09,25,5.10
2019,03,28,09,26,5.10
2019,03,28,09,27,5.10
2019,03,28,09,28,5.20
2019,03,28,09,29,5.20
2019,03,28,09,30,5.20
2019,03,28,09,31,5.30
2019,03,28,09,32,5.30
2019,03,28,09,33,5.30
2019,03,28,09,34,5.40
2019,03,28,09,35,5.40
2019,03,28,09,36,5.50
2019,03,28,09,37,5.60
2019,03,28,09,38,5.60
2019,03,28,09,39,5.70
2019,03,28,09,40,5.70
2019,03,28,09,41,5.80
2019,03,28,09,42,5.80
2019,03,28,09,43,5.80
2019,03,28,09,44,5.90
2019,03,28,09,45,6.00
2019,03,28,09,46,6.00
2019,03,28,09,47,6.10
2019,03,28,09,48,6.20
2019,03,28,09,49,6.20
2019,03,28,09,50,6.30
2019,03,28,09,51,6.30
2019,03,28,09,52,6.40
2019,03,28,09,53,6.50
2019,03,28,09,54,6.60
2019,03,28,09,55,6.70
2019,03,28,09,56,6.80
2019,03,28,09,57,6.90
2019,03,28,09,58,7.00
2019,03,28,09,59,7.10
2019,03,28,10,00,7.20
2019,03,28,10,01,7.30
2019,03,28,10,02,7.50
2019,03,28,10,03,7.60
2019,03,28,10,04,7.70
2019,03,28,10,05,7.90
2019,03,28,10,06,8.00
2019,03,28,10,07,8.10
2019,03,28,10,08,8.20
2019,03,28,10,09,8.20
2019,03,28,10,10,8.30
2019,03,28,10,11,8.30
2019,03,28,10,12,8.30
2019,03,28,10,13,8.30
2019,03,28,10,14,8.30
2019,03,28,10,15,8.40
2019,03,28,10,16,8.30
2019,03,28,10,17,8.30
2019,03,28,10,18,8.40
2019,03,28,10,19,8.40
2019,03,28,10,20,8.40
2019,03,28,10,21,8.50
2019,03,28,10,22,8.50
2019,03,28,10,23,8.50
2019,03,28,10,24,8.50
2019,03,28,10,25,8.50
2019,03,28,10,26,8.50
2019,03,28,10,27,8.60
2019,03,28,10,28,8.70
2019,03,28,10,29,8.70
2019,03,28,10,30,8.80
2019,03,28,10,31,8.80
2019,03,28,10,32,8.80
2019,03,28,10,33,8.80
2019,03,28,10,34,8.90
2019,03,28,10,35,8.90
2019,03,28,10,36,9.00
2019,03,28,10,37,9.10
2019,03,28,10,38,9.10
2019,03,28,10,39,9.20
2019,03,28,10,40,9.20
2019,03,28,10,41,9.30
2019,03,28,10,42,9.30
2019,03,28,10,43,9.40
2019,03,28,10,44,9.50
2019,03,28,10,45,9.50
2019,03,28,10,46,9.60
2019,03,28,10,47,9.60
2019,03,28,10,48,9.60
2019,03,28,10,49,9.60
2019,03,28,10,50,9.60
2019,03,28,10,51,9.60
2019,03,28,10,52,9.60
2019,03,28,10,53,9.60
2019,03,28,10,54,9.60
2019,03,28,10,55,9.60
2019,03,28,10,56,9.60
2019,03,28,10,57,9.60
2019,03,28,10,58,9.60
2019,03,28,10,59,9.60
2019,03,28,11,00,9.50
2019,03,28,11,01,9.50
2019,03,28,11,02,9.40
2019,03,28,11,03,9.40
2019,03,28,11,04,9.40
2019,03,28,11,05,9.30
2019,03,28,11,06,9.30
2019,03,28,11,07,9.30
2019,03,28,11,08,9.20
2019,03,28,11,09,9.20
2019,03,28,11,10,9.20
2019,03,28,11,11,9.20
2019,03,28,11,12,9.20
2019,03,28,11,13,9.20
2019,03,28,11,14,9.20
2019,03,28,11,15,9.20
2019,03,28,11,16,9.20
2019,03,28,11,17,9.20
2019,03,28,11,18,9.20
2019,03,28,11,19,9.20
2019,03,28,11,20,9.20
2019,03,28,11,21,9.20
2019,03,28,11,22,9.20
2019,03,28,11,23,9.20
2019,03,28,11,24,9.20
2019,03,28,11,25,9.20
2019,03,28,11,26,9.20
2019,03,28,11,27,9.20
2019,03,28,11,28,9.10
2019,03,28,11,29,9.10
2019,03,28,11,30,9.10
2019,03,28,11,31,9.10
2019,03,28,11,32,9.10
2019,03,28,11,33,9.10
2019,03,28,11,34,9.10
2019,03,28,11,35,9.10
2019,03,28,11,36,9.10
2019,03,28,11,37,9.10
2019,03,28,11,38,9.20
2019,03,28,11,39,9.20
2019,03,28,11,40,9.20
2019,03,28,11,41,9.20
2019,03,28,11,42,9.20
2019,03,28,11,43,9.30
2019,03,28,11,44,9.30
2019,03,28,11,45,9.30
2019,03,28,11,46,9.40
2019,03,28,11,47,9.40
2019,03,28,11,48,9.50
2019,03,28,11,49,9.60
2019,03,28,11,50,9.60
2019,03,28,11,51,9.70
2019,03,28,11,52,9.80
2019,03,28,11,53,9.90
2019,03,28,11,54,10.00
2019,03,28,11,55,10.10
2019,03,28,11,56,10.20
2019,03,28,11,57,10.30
2019,03,28,11,58,10.30
2019,03,28,11,59,10.40
2019,03,28,12,00,10.50
2019,03,28,12,01,10.60
2019,03,28,12,02,10.70
2019,03,28,12,03,10.80
2019,03,28,12,04,10.80
2019,03,28,12,05,10.90
2019,03,28,12,06,10.90
2019,03,28,12,07,11.00
2019,03,28,12,08,11.00
2019,03,28,12,09,11.00
2019,03,28,12,10,11.00
2019,03,28,12,11,11.00
2019,03,28,12,12,11.10
2019,03,28,12,13,11.10
2019,03,28,12,14,11.20
2019,03,28,12,15,11.30
2019,03,28,12,16,11.30
2019,03,28,12,17,11.40
2019,03,28,12,18,11.50
2019,03,28,12,19,11.60
2019,03,28,12,20,11.60
2019,03,28,12,21,11.70
2019,03,28,12,22,11.80
2019,03,28,12,23,11.90
2019,03,28,12,24,12.00
2019,03,28,12,25,12.00
2019,03,28,12,26,12.10
2019,03,28,12,27,12.20
2019,03,28,12,28,12.30
2019,03,28,12,29,12.30
2019,03,28,12,30,12.40
2019,03,28,12,31,12.50
2019,03,28,12,32,12.60
2019,03,28,12,33,12.60
2019,03,28,12,34,12.70
2019,03,28,12,35,12.80
2019,03,28,12,36,12.80
2019,03,28,12,37,12.90
2019,03,28,12,38,12.90
2019,03,28,12,39,13.00
2019,03,28,12,40,13.00
2019,03,28,12,41,13.00
2019,03,28,12,42,13.00
2019,03,28,12,43,13.00
2019,03,28,12,44,13.00
2019,03,28,12,45,12.90
2019,03,28,12,46,12.90
2019,03,28,12,47,12.90
2019,03,28,12,48,12.90
2019,03,28,12,49,12.90
2019,03,28,12,50,12.90
2019,03,28,12,51,12.90
2019,03,28,12,52,12.90
2019,03,28,12,53,13.00
2019,03,28,12,54,13.00
2019,03,28,12,55,13.00
2019,03,28,12,56,13.00
2019,03,28,12,57,13.10
2019,03,28,12,58,13.10
2019,03,28,12,59,13.10
2019,03,28,13,00,13.20
2019,03,28,13,01,13.20
2019,03,28,13,02,13.20
2019,03,28,13,03,13.20
2019,03,28,13,04,13.20
2019,03,28,13,05,13.20
2019,03,28,13,06,13.20
2019,03,28,13,07,13.20
2019,03,28,13,08,13.20
2019,03,28,13,09,13.20
2019,03,28,13,10,13.20
2019,03,28,13,11,13.20
2019,03,28,13,12,13.20
2019,03,28,13,13,13.20
2019,03,28,13,14,13.20
2019,03,28,13,15,13.30
2019,03,28,13,16,13.30
2019,03,28,13,17,13.30
2019,03,28,13,18,13.40
2019,03,28,13,19,13.40
2019,03,28,13,20,13.40
2019,03,28,13,21,13.40
2019,03,28,13,22,13.40
2019,03,28,13,23,13.50
2019,03,28,13,24,13.60
2019,03,28,13,25,13.60
2019,03,28,13,26,13.60
2019,03,28,13,27,13.70
2019,03,28,13,28,13.80
2019,03,28,13,29,13.90
2019,03,28,13,30,14.00
2019,03,28,13,31,14.10
2019,03,28,13,32,14.10
2019,03,28,13,33,14.20
2019,03,28,13,34,14.20
2019,03,28,13,35,14.30
2019,03,28,13,36,14.30
2019,03,28,13,37,14.30
2019,03,28,13,38,14.30
2019,03,28,13,39,14.30
2019,03,28,13,40,14.30
2019,03,28,13,41,14.30
2019,03,28,13,42,14.30
2019,03,28,13,43,14.40
2019,03,28,13,44,14.40
2019,03,28,13,45,14.60
2019,03,28,13,46,14.70
2019,03,28,13,47,14.80
2019,03,28,13,48,14.80
2019,03,28,13,49,14.90
2019,03,28,13,50,14.90
2019,03,28,13,51,14.90
2019,03,28,13,52,14.90
2019,03,28,13,53,14.90
2019,03,28,13,54,15.00
2019,03,28,13,55,15.00
2019,03,28,13,56,15.00
2019,03,28,13,57,15.10
2019,03,28,13,58,15.10
2019,03,28,13,59,15.20
2019,03,28,14,00,15.30
2019,03,28,14,01,15.30
2019,03,28,14,02,15.30
2019,03,28,14,03,15.40
2019,03,28,14,04,15.50
2019,03,28,14,05,15.60
2019,03,28,14,06,15.60
2019,03,28,14,07,15.70
2019,03,28,14,08,15.80
2019,03,28,14,09,15.80
2019,03,28,14,10,15.80
2019,03,28,14,11,15.60
2019,03,28,14,12,15.40
2019,03,28,14,13,15.10
2019,03,28,14,14,14.90
2019,03,28,14,15,14.80
2019,03,28,14,16,14.70
2019,03,28,14,17,14.60
2019,03,28,14,18,14.70
2019,03,28,14,19,14.70
2019,03,28,14,20,14.70
2019,03,28,14,21,14.70
2019,03,28,14,22,14.70
2019,03,28,14,23,14.60
2019,03,28,14,24,14.60
2019,03,28,14,25,14.60
2019,03,28,14,26,14.60
2019,03,28,14,27,14.60
2019,03,28,14,28,14.50
2019,03,28,14,29,14.50
2019,03,28,14,30,14.50
2019,03,28,14,31,14.50
2019,03,28,14,32,14.40
2019,03,28,14,33,14.40
2019,03,28,14,34,14.30
2019,03,28,14,35,14.30
2019,03,28,14,36,14.30
2019,03,28,14,37,14.30
2019,03,28,14,38,14.30
2019,03,28,14,39,14.40
2019,03,28,14,40,14.40
2019,03,28,14,41,14.40
2019,03,28,14,42,14.50
2019,03,28,14,43,14.50
2019,03,28,14,44,14.60
2019,03,28,14,45,14.60
2019,03,28,14,46,14.70
2019,03,28,14,47,14.70
2019,03,28,14,48,14.70
2019,03,28,14,49,14.70
2019,03,28,14,50,14.70
2019,03,28,14,51,14.70
2019,03,28,14,52,14.70
2019,03,28,14,53,14.70
2019,03,28,14,54,14.80
2019,03,28,14,55,14.80
2019,03,28,14,56,14.90
2019,03,28,14,57,15.00
2019,03,28,14,58,15.10
2019,03,28,14,59,15.20
2019,03,28,15,00,15.30
2019,03,28,15,01,15.30
2019,03,28,15,02,15.30
2019,03,28,15,03,15.40
2019,03,28,15,04,15.40
2019,03,28,15,05,15.40
2019,03,28,15,06,15.40
2019,03,28,15,07,15.40
2019,03,28,15,08,15.40
2019,03,28,15,09,15.50
2019,03,28,15,10,15.50
2019,03,28,15,11,15.50
2019,03,28,15,12,15.40
2019,03,28,15,13,15.40
2019,03,28,15,14,15.40
2019,03,28,15,15,15.40
2019,03,28,15,16,15.50
2019,03,28,15,17,15.50
2019,03,28,15,18,15.50
2019,03,28,15,19,15.50
2019,03,28,15,20,15.40
2019,03,28,15,21,15.40
2019,03,28,15,22,15.40
2019,03,28,15,23,15.50
2019,03,28,15,24,15.50
2019,03,28,15,25,15.50
2019,03,28,15,26,15.50
2019,03,28,15,27,15.60
2019,03,28,15,28,15.70
2019,03,28,15,29,15.70
2019,03,28,15,30,15.80
2019,03,28,15,31,15.80
2019,03,28,15,32,15.80
2019,03,28,15,33,15.80
2019,03,28,15,34,15.80
2019,03,28,15,35,15.80
2019,03,28,15,36,15.90
2019,03,28,15,37,15.90
2019,03,28,15,38,16.00
2019,03,28,15,39,16.00
2019,03,28,15,40,16.10
2019,03,28,15,41,16.00
2019,03,28,15,42,15.90
2019,03,28,15,43,15.90
2019,03,28,15,44,15.90
2019,03,28,15,45,16.00
2019,03,28,15,46,16.00
2019,03,28,15,47,16.10
2019,03,28,15,48,16.00
2019,03,28,15,49,16.00
2019,03,28,15,50,15.90
2019,03,28,15,51,15.90
2019,03,28,15,52,15.90
2019,03,28,15,53,15.90
2019,03,28,15,54,15.90
2019,03,28,15,55,15.90
2019,03,28,15,56,15.90
2019,03,28,15,57,15.90
2019,03,28,15,58,16.00
2019,03,28,15,59,16.00
2019,03,28,16,00,15.90
2019,03,28,16,01,15.90
2019,03,28,16,02,15.90
2019,03,28,16,03,15.90
2019,03,28,16,04,15.90
2019,03,28,16,05,15.90
2019,03,28,16,06,15.80
2019,03,28,16,07,15.80
2019,03,28,16,08,15.70
2019,03,28,16,09,15.70
2019,03,28,16,10,15.60
2019,03,28,16,11,15.50
2019,03,28,16,12,15.40
2019,03,28,16,13,15.30
2019,03,28,16,14,15.20
2019,03,28,16,15,15.20
2019,03,28,16,16,15.10
2019,03,28,16,17,15.10
2019,03,28,16,18,15.10
2019,03,28,16,19,15.10
2019,03,28,16,20,15.10
2019,03,28,16,21,15.20
2019,03,28,16,22,15.40
2019,03,28,16,23,15.60
2019,03,28,16,24,15.70
2019,03,28,16,25,15.90
2019,03,28,16,26,15.90
2019,03,28,16,27,15.90
2019,03,28,16,28,15.90
2019,03,28,16,29,15.90
2019,03,28,16,30,15.90
2019,03,28,16,31,15.90
2019,03,28,16,32,15.90
2019,03,28,16,33,16.00
2019,03,28,16,34,16.00
2019,03,28,16,35,16.10
2019,03,28,16,36,16.20
2019,03,28,16,37,16.20
2019,03,28,16,38,16.30
2019,03,28,16,39,16.40
2019,03,28,16,40,16.50
2019,03,28,16,41,16.60
2019,03,28,16,42,16.70
2019,03,28,16,43,16.70
2019,03,28,16,44,16.60
2019,03,28,16,45,16.60
2019,03,28,16,46,16.50
2019,03,28,16,47,16.50
2019,03,28,16,48,16.40
2019,03,28,16,49,16.40
2019,03,28,16,50,16.40
2019,03,28,16,51,16.40
2019,03,28,16,52,16.50
2019,03,28,16,53,16.60
2019,03,28,16,54,16.70
2019,03,28,16,55,16.70
2019,03,28,16,56,16.70
2019,03,28,16,57,16.70
2019,03,28,16,58,16.70
2019,03,28,16,59,16.70
2019,03,28,17,00,16.70
2019,03,28,17,01,16.70
2019,03,28,17,02,16.70
2019,03,28,17,03,16.80
2019,03,28,17,04,16.80
2019,03,28,17,05,16.80
2019,03,28,17,06,16.80
2019,03,28,17,07,16.80
2019,03,28,17,08,16.90
2019,03,28,17,09,16.90
2019,03,28,17,10,16.90
2019,03,28,17,11,16.80
2019,03,28,17,12,16.80
2019,03,28,17,13,16.80
2019,03,28,17,14,16.80
2019,03,28,17,15,16.80
2019,03,28,17,16,16.90
2019,03,28,17,17,16.90
2019,03,28,17,18,16.90
2019,03,28,17,19,16.70
2019,03,28,17,20,16.50
2019,03,28,17,21,16.30
2019,03,28,17,22,16.20
2019,03,28,17,23,16.00
2019,03,28,17,24,15.90
2019,03,28,17,25,15.80
2019,03,28,17,26,15.80
2019,03,28,17,27,15.70
2019,03,28,17,28,15.70
2019,03,28,17,29,15.70
2019,03,28,17,30,15.60
2019,03,28,17,31,15.60
2019,03,28,17,32,15.40
2019,03,28,17,33,15.30
2019,03,28,17,34,15.20
2019,03,28,17,35,15.10
2019,03,28,17,36,15.00
2019,03,28,17,37,14.90
2019,03,28,17,38,14.90
2019,03,28,17,39,14.90
2019,03,28,17,40,14.90
2019,03,28,17,41,14.90
2019,03,28,17,42,14.80
2019,03,28,17,43,14.80
2019,03,28,17,44,14.70
2019,03,28,17,45,14.70
2019,03,28,17,46,14.70
2019,03,28,17,47,14.80
2019,03,28,17,48,14.80
2019,03,28,17,49,14.80
2019,03,28,17,50,14.90